| time (UTC) | temp C | wind direction | speed KPH | gust KPH | rain 1hr cm | rain 24hr cm | rain mn cm | humidity % | barometer mb |
| 20260503225950 | 16 | 248 | 4.8 | 11.3 | 0.00 | 0.00 | 0.00 | 2 | 1012.1 |
| 20260503224450 | 16 | 249 | 3.2 | 14.5 | 0.00 | 0.00 | 0.00 | 2 | 1011.9 |
| 20260503222950 | 17 | 85 | 0.0 | 8.0 | 0.00 | 0.00 | 0.00 | 2 | 1011.9 |
| 20260503221448 | 16 | 252 | 3.2 | 17.7 | 0.00 | 0.00 | 0.00 | 2 | 1011.9 |
| 20260503220209 | 17 | 247 | 0.0 | 4.8 | 0.00 | 0.00 | 0.00 | 2 | 1012.0 |
| 20260503215948 | 17 | 247 | 0.0 | 4.8 | 0.00 | 0.00 | 0.00 | 2 | 1012.0 |
| 20260503214449 | 17 | 294 | 6.4 | 17.7 | 0.00 | 0.00 | 0.00 | 2 | 1011.9 |
| 20260503212949 | 16 | 258 | 3.2 | 14.5 | 0.00 | 0.00 | 0.00 | 2 | 1011.9 |
| 20260503211448 | 17 | 353 | 4.8 | 14.5 | 0.00 | 0.00 | 0.00 | 2 | 1011.7 |
| 20260503205950 | 15 | 221 | 6.4 | 11.3 | 0.00 | 0.00 | 0.00 | 2 | 1011.9 |
| 20260503204451 | 15 | 249 | 8.0 | 12.9 | 0.00 | 0.00 | 0.00 | 2 | 1011.7 |
| 20260503202948 | 17 | 315 | 1.6 | 12.9 | 0.00 | 0.00 | 0.00 | 2 | 1011.9 |
| 20260503201448 | 16 | 275 | 6.4 | 17.7 | 0.00 | 0.00 | 0.00 | 2 | 1011.9 |
| 20260503195948 | 17 | 227 | 4.8 | 9.7 | 0.00 | 0.00 | 0.00 | 2 | 1011.9 |
| 20260503194448 | 16 | 202 | 3.2 | 17.7 | 0.00 | 0.00 | 0.00 | 2 | 1012.1 |
| 20260503191449 | 15 | 204 | 1.6 | 6.4 | 0.00 | 0.00 | 0.00 | 3 | 1012.2 |
| 20260503185948 | 15 | 225 | 0.0 | 4.8 | 0.00 | 0.00 | 0.00 | 3 | 1012.4 |
| 20260503184448 | 13 | 285 | 3.2 | 11.3 | 0.00 | 0.00 | 0.00 | 3 | 1012.8 |
| 20260503182948 | 14 | 285 | 8.0 | 20.9 | 0.00 | 0.00 | 0.00 | 3 | 1012.9 |
| 20260503181449 | 12 | 300 | 1.6 | 14.5 | 0.00 | 0.00 | 0.00 | 3 | 1013.0 |
| 20260503175948 | 13 | 277 | 1.6 | 16.1 | 0.00 | 0.00 | 0.00 | 3 | 1013.0 |
| 20260503174448 | 13 | 0 | 0.0 | 0.0 | 0.00 | 0.00 | 0.00 | 3 | 1013.2 |
| 20260503172950 | 13 | 339 | 1.6 | 11.3 | 0.00 | 0.00 | 0.00 | 3 | 1013.1 |
| 20260503171449 | 12 | 6 | 6.4 | 17.7 | 0.00 | 0.00 | 0.00 | 3 | 1013.2 |
| 20260503090320 | 7 | 0 | 0.0 | 0.0 | 0.00 | 0.00 | 0.00 | 5 | 1011.3 |
| 20260503081450 | 7 | 0 | 0.0 | 3.2 | 0.00 | 0.00 | 0.00 | 5 | 1011.3 |
| 20260503080327 | 8 | 0 | 0.0 | 0.0 | 0.00 | 0.00 | 0.00 | 5 | 1011.3 |
| 20260503071450 | 8 | 270 | 0.0 | 3.2 | 0.00 | 0.00 | 0.00 | 4 | 1011.2 |
| 20260503070230 | 8 | 0 | 0.0 | 0.0 | 0.00 | 0.00 | 0.00 | 4 | 1011.2 |
| 20260503054449 | 10 | 0 | 0.0 | 0.0 | 0.00 | 0.00 | 0.00 | 4 | 1011.4 |
| 20260503052948 | 10 | 0 | 0.0 | 0.0 | 0.00 | 0.00 | 0.00 | 4 | 1011.5 |
| 20260503051448 | 10 | 0 | 0.0 | 0.0 | 0.00 | 0.00 | 0.00 | 4 | 1011.8 |
| 20260503044448 | 10 | 0 | 0.0 | 0.0 | 0.00 | 0.00 | 0.00 | 4 | 1012.1 |
| 20260503035948 | 10 | 0 | 0.0 | 0.0 | 0.00 | 0.00 | 0.00 | 4 | 1012.1 |
| 20260503034449 | 11 | 0 | 0.0 | 0.0 | 0.00 | 0.00 | 0.00 | 4 | 1012.0 |
| 20260503031448 | 11 | 0 | 0.0 | 0.0 | 0.00 | 0.00 | 0.00 | 4 | 1011.9 |
| 20260503025949 | 11 | 0 | 0.0 | 0.0 | 0.00 | 0.00 | 0.00 | 4 | 1011.9 |
| 20260503024448 | 11 | 0 | 0.0 | 0.0 | 0.00 | 0.00 | 0.00 | 4 | 1011.9 |
| 20260503023451 | 11 | 0 | 0.0 | 0.0 | 0.00 | 0.00 | 0.00 | 4 | 1011.9 |
| 20260503022948 | 11 | 0 | 0.0 | 0.0 | 0.00 | 0.00 | 0.00 | 4 | 1011.9 |
| 20260503021448 | 11 | 0 | 0.0 | 0.0 | 0.00 | 0.00 | 0.00 | 4 | 1011.8 |
| 20260503015948 | 12 | 0 | 0.0 | 0.0 | 0.00 | 0.00 | 0.00 | 4 | 1011.9 |
| 20260503014448 | 12 | 0 | 0.0 | 0.0 | 0.00 | 0.00 | 0.00 | 4 | 1012.0 |
| 20260503012950 | 12 | 0 | 0.0 | 0.0 | 0.00 | 0.00 | 0.00 | 4 | 1011.8 |
| 20260503011448 | 12 | 0 | 0.0 | 0.0 | 0.00 | 0.00 | 0.00 | 4 | 1011.7 |
| 20260503005948 | 12 | 0 | 0.0 | 0.0 | 0.00 | 0.00 | 0.00 | 4 | 1011.5 |
| 20260503004448 | 12 | 0 | 0.0 | 0.0 | 0.00 | 0.00 | 0.00 | 4 | 1011.3 |
| 20260503001450 | 13 | 0 | 0.0 | 0.0 | 0.00 | 0.00 | 0.00 | 3 | 1011.1 |
| 20260502235948 | 13 | 0 | 0.0 | 0.0 | 0.00 | 0.00 | 0.00 | 3 | 1011.1 |
| 20260502234448 | 14 | 0 | 0.0 | 0.0 | 0.00 | 0.00 | 0.00 | 4 | 1011.1 |
| 20260502232949 | 15 | 0 | 0.0 | 0.0 | 0.00 | 0.00 | 0.00 | 3 | 1011.1 |
| 20260502231448 | 15 | 0 | 0.0 | 0.0 | 0.00 | 0.00 | 0.00 | 3 | 1011.1 |